QPF
0.00 0.00 0.00 0.00 0.00 0.00 0.00 0.00 0.00 0.00 0.00 0.00 0.00 0.00 0.00 0.00 0.00 0.00 0.00 0.00 0.00 0.00 0.00 0.00 0.00 0.00 0.00 0.00 0.00 0.00 0.00 0.00 0.00 0.00 0.00 0.00 0.00 0.00 0.00 0.00 0.00 0.00 0.00
0.00 0.00 0.00 0.00 0.00 0.00 0.00 0.00 0.00 0.00 0.00 0.00 0.00 0.00 0.00 0.00 0.00 0.00 0.00 0.00 0.00 0.00 0.00 0.00 0.00 0.00 0.00 0.00 0.00 0.00 0.00 0.00 0.00 0.00 0.00 0.00 0.00 0.00 0.00 0.00 0.00 0.00 0.00
0.00 0.00 0.00 0.00 0.00 0.00 0.00 0.00 0.00 0.00 0.00 0.00 0.00 0.00 0.00 0.00 0.00 0.00 0.00 0.00 0.00 0.00 0.00 0.00 0.00 0.00 0.00 0.00 0.00 0.00 0.00 0.00 0.00 0.00 0.00 0.00 0.00 0.00 0.00 0.00 0.00 0.00 0.00
0.00 0.00 0.00 0.00 0.00 0.00 0.00 0.00 0.00 0.00 0.00 0.00 0.00 0.00 0.00 0.00 0.00 0.00 0.00 0.00 0.00 0.00 0.00 0.00 0.00 0.00 0.00 0.00 0.00 0.00 0.00 0.00 0.00 0.00 0.00 0.00 0.00 0.00 0.00 0.00 0.00 0.00 0.00
0.00 0.00 0.00 0.00 0.00 0.00 0.00 0.00 0.00 0.00 0.00 0.00 0.00 0.00 0.00 0.00 0.00 0.00 0.00 0.00 0.00 0.00 0.00 0.00 0.00 0.00 0.00 0.00 0.00 0.00 0.00 0.00 0.00 0.00 0.00 0.00 0.00 0.00 0.00 0.00 0.00 0.00 0.00
0.00 0.00 0.00 0.00 0.00 0.00 0.00 0.00 0.00 0.00 0.00 0.00 0.00 0.00 0.00 0.00 0.00 0.00 0.00 0.00 0.00 0.00 0.00 0.00 0.00 0.00 0.00 0.00 0.00 0.00 0.00 0.00 0.00 0.00 0.00 0.00 0.00 0.00 0.00 0.00 0.00 0.00 0.00
0.01 0.00 0.00 0.00 0.00 0.00 0.00 0.00 0.00 0.00 0.00 0.00 0.00 0.00 0.00 0.00 0.00 0.00 0.00 0.00 0.00 0.00 0.00 0.00 0.00 0.00 0.00 0.00 0.00 0.00 0.00 0.00 0.00 0.00 0.00 0.00 0.00 0.00 0.00 0.00 0.00 0.00 0.00
0.02 0.00 0.00 0.00 0.00 0.00 0.00 0.00 0.00 0.00 0.00 0.00 0.00 0.00 0.00 0.00 0.00 0.00 0.00 0.00 0.00 0.00 0.00 0.00 0.00 0.00 0.00 0.00 0.00 0.00 0.00 0.00 0.00 0.00 0.00 0.00 0.00 0.00 0.00 0.00 0.01 0.01 0.01
0.02 0.01 0.00 0.00 0.00 0.00 0.00 0.00 0.00 0.00 0.00 0.00 0.00 0.00 0.00 0.00 0.00 0.00 0.00 0.00 0.00 0.00 0.00 0.00 0.00 0.00 0.00 0.00 0.00 0.00 0.00 0.00 0.00 0.00 0.00 0.00 0.00 0.00 0.01 0.01 0.01 0.02 0.02
0.04 0.02 0.01 0.00 0.00 0.00 0.00 0.00 0.00 0.00 0.00 0.00 0.00 0.00 0.00 0.00 0.00 0.00 0.00 0.00 0.00 0.00 0.00 0.00 0.00 0.00 0.00 0.00 0.00 0.00 0.00 0.00 0.00 0.00 0.00 0.00 0.00 0.01 0.01 0.02 0.03 0.03 0.03
0.04 0.03 0.02 0.01 0.00 0.00 0.00 0.00 0.00 0.00 0.00 0.00 0.00 0.00 0.00 0.00 0.00 0.00 0.00 0.00 0.00 0.00 0.00 0.00 0.00 0.00 0.00 0.00 0.00 0.00 0.00 0.00 0.00 0.00 0.00 0.00 0.01 0.01 0.02 0.03 0.03 0.03 0.03
0.04 0.03 0.03 0.02 0.01 0.00 0.00 0.00 0.00 0.00 0.00 0.00 0.00 0.00 0.00 0.00 0.00 0.00 0.00 0.00 0.00 0.00 0.00 0.00 0.00 0.00 0.00 0.00 0.00 0.00 0.00 0.00 0.00 0.00 0.00 0.00 0.01 0.02 0.02 0.02 0.02 0.02 0.03
0.04 0.04 0.03 0.03 0.02 0.01 0.01 0.00 0.00 0.00 0.00 0.00 0.00 0.00 0.00 0.00 0.00 0.00 0.00 0.00 0.00 0.00 0.00 0.00 0.00 0.00 0.00 0.00 0.00 0.00 0.00 0.00 0.00 0.00 0.00 0.01 0.01 0.02 0.01 0.02 0.02 0.03 0.03
0.10 0.09 0.07 0.06 0.04 0.02 0.01 0.00 0.00 0.00 0.00 0.00 0.00 0.00 0.00 0.00 0.00 0.00 0.00 0.00 0.00 0.00 0.00 0.00 0.00 0.00 0.00 0.00 0.00 0.00 0.00 0.00 0.00 0.00 0.00 0.01 0.01 0.01 0.01 0.01 0.02 0.02 0.03
0.10 0.11 0.11 0.09 0.06 0.03 0.01 0.00 0.00 0.00 0.00 0.00 0.00 0.00 0.00 0.00 0.00 0.00 0.00 0.00 0.00 0.00 0.00 0.00 0.00 0.00 0.00 0.00 0.00 0.00 0.00 0.00 0.00 0.00 0.00 0.00 0.00 0.00 0.01 0.01 0.02 0.02 0.03
0.08 0.09 0.10 0.09 0.06 0.03 0.01 0.00 0.00 0.00 0.00 0.00 0.00 0.00 0.00 0.00 0.00 0.00 0.00 0.00 0.00 0.00 0.00 0.00 0.00 0.00 0.00 0.00 0.00 0.00 0.00 0.00 0.00 0.00 0.00 0.00 0.00 0.00 0.01 0.01 0.01 0.02 0.02
0.06 0.07 0.08 0.07 0.05 0.02 0.01 0.00 0.00 0.00 0.00 0.00 0.00 0.00 0.00 0.00 0.00 0.00 0.00 0.00 0.00 0.00 0.00 0.00 0.00 0.00 0.00 0.00 0.00 0.00 0.00 0.00 0.00 0.00 0.00 0.00 0.00 0.00 0.01 0.01 0.01 0.01 0.02
0.05 0.06 0.06 0.05 0.03 0.01 0.00 0.00 0.00 0.00 0.00 0.00 0.00 0.00 0.00 0.00 0.00 0.00 0.00 0.00 0.00 0.00 0.00 0.00 0.00 0.00 0.00 0.00 0.00 0.00 0.00 0.00 0.00 0.00 0.00 0.00 0.00 0.00 0.00 0.01 0.01 0.02 0.02
0.04 0.04 0.03 0.02 0.01 0.00 0.00 0.00 0.00 0.00 0.00 0.00 0.00 0.00 0.00 0.00 0.00 0.00 0.00 0.00 0.00 0.00 0.00 0.00 0.00 0.00 0.00 0.00 0.00 0.00 0.00 0.00 0.00 0.00 0.00 0.00 0.00 0.00 0.00 0.01 0.01 0.01 0.01
0.04 0.02 0.01 0.01 0.01 0.00 0.00 0.00 0.00 0.00 0.00 0.00 0.00 0.00 0.00 0.00 0.00 0.00 0.00 0.00 0.00 0.00 0.00 0.00 0.00 0.00 0.00 0.00 0.00 0.00 0.00 0.00 0.00 0.00 0.00 0.00 0.00 0.00 0.00 0.00 0.00 0.00 0.00
0.02 0.01 0.01 0.01 0.01 0.00 0.00 0.00 0.00 0.00 0.00 0.00 0.00 0.00 0.00 0.00 0.00 0.00 0.00 0.00 0.00 0.00 0.00 0.00 0.00 0.00 0.00 0.00 0.00 0.00 0.00 0.00 0.00 0.00 0.00 0.00 0.00 0.00 0.00 0.00 0.00 0.00 0.00
0.02 0.02 0.02 0.01 0.01 0.01 0.00 0.00 0.00 0.00 0.00 0.00 0.00 0.00 0.00 0.00 0.00 0.00 0.00 0.00 0.00 0.00 0.00 0.01 0.01 0.00 0.00 0.00 0.00 0.00 0.00 0.00 0.00 0.00 0.00 0.00 0.00 0.00 0.00 0.00 0.00 0.00 0.00
0.06 0.05 0.04 0.04 0.03 0.02 0.02 0.01 0.00 0.00 0.00 0.00 0.00 0.00 0.00 0.00 0.00 0.00 0.00 0.00 0.00 0.00 0.01 0.01 0.00 0.00 0.00 0.00 0.00 0.01 0.01 0.02 0.01 0.00 0.00 0.00 0.00 0.00 0.00 0.00 0.00 0.00 0.00
0.11 0.10 0.08 0.06 0.04 0.02 0.01 0.00 0.00 0.00 0.00 0.00 0.00 0.00 0.00 0.00 0.00 0.00 0.00 0.00 0.00 0.00 0.00 0.00 0.00 0.00 0.00 0.00 0.01 0.02 0.02 0.01 0.00 0.00 0.00 0.00 0.00 0.00 0.00 0.00 0.00 0.00 0.00
0.15 0.10 0.06 0.03 0.01 0.00 0.00 0.00 0.00 0.00 0.00 0.00 0.00 0.00 0.00 0.00 0.00 0.00 0.00 0.00 0.00 0.00 0.00 0.00 0.00 0.00 0.00 0.00 0.00 0.00 0.00 0.01 0.01 0.00 0.00 0.00 0.00 0.00 0.00 0.00 0.00 0.00 0.00
0.07 0.04 0.02 0.01 0.00 0.00 0.00 0.00 0.00 0.00 0.00 0.00 0.00 0.00 0.00 0.00 0.00 0.01 0.01 0.01 0.00 0.00 0.00 0.00 0.00 0.00 0.00 0.00 0.00 0.00 0.00 0.03 0.04 0.02 0.00 0.00 0.01 0.01 0.02 0.00 0.00 0.00 0.00
MSLP
1017.03 1017.31 1017.54 1017.73 1017.91 1018.09 1018.29 1018.51 1018.76 1019.00 1019.23 1019.42 1019.56 1019.65 1019.70 1019.71 1019.71 1019.71 1019.73 1019.77 1019.84 1019.91 1019.99 1020.05 1020.09 1020.09 1020.06 1019.99 1019.89 1019.77 1019.64 1019.51 1019.38 1019.28 1019.18 1019.09 1019.00 1018.88 1018.73 1018.54 1018.29 1018.02 1017.72
1016.72 1017.06 1017.36 1017.63 1017.88 1018.13 1018.39 1018.66 1018.94 1019.20 1019.44 1019.64 1019.80 1019.90 1019.97 1020.01 1020.03 1020.06 1020.10 1020.15 1020.23 1020.31 1020.39 1020.44 1020.47 1020.46 1020.40 1020.30 1020.17 1020.01 1019.85 1019.69 1019.55 1019.44 1019.35 1019.28 1019.20 1019.11 1018.97 1018.79 1018.56 1018.28 1017.98
1016.35 1016.76 1017.14 1017.50 1017.85 1018.19 1018.52 1018.84 1019.14 1019.42 1019.67 1019.87 1020.02 1020.14 1020.21 1020.27 1020.31 1020.35 1020.41 1020.47 1020.55 1020.62 1020.69 1020.74 1020.75 1020.72 1020.64 1020.52 1020.37 1020.18 1020.00 1019.82 1019.67 1019.55 1019.45 1019.38 1019.31 1019.23 1019.11 1018.94 1018.72 1018.46 1018.17
1015.93 1016.42 1016.89 1017.36 1017.81 1018.25 1018.65 1019.02 1019.36 1019.64 1019.88 1020.07 1020.22 1020.33 1020.41 1020.48 1020.54 1020.59 1020.66 1020.72 1020.79 1020.86 1020.91 1020.94 1020.93 1020.89 1020.80 1020.66 1020.50 1020.31 1020.11 1019.92 1019.75 1019.62 1019.51 1019.43 1019.35 1019.25 1019.13 1018.97 1018.76 1018.51 1018.24
1015.51 1016.07 1016.64 1017.21 1017.77 1018.29 1018.77 1019.19 1019.54 1019.83 1020.06 1020.24 1020.37 1020.48 1020.57 1020.64 1020.71 1020.78 1020.85 1020.91 1020.97 1021.02 1021.05 1021.06 1021.04 1020.98 1020.88 1020.75 1020.58 1020.40 1020.20 1020.01 1019.83 1019.67 1019.54 1019.43 1019.32 1019.21 1019.07 1018.90 1018.69 1018.44 1018.18
1015.10 1015.72 1016.38 1017.04 1017.69 1018.29 1018.83 1019.29 1019.67 1019.96 1020.18 1020.34 1020.47 1020.58 1020.67 1020.76 1020.85 1020.93 1021.01 1021.07 1021.12 1021.15 1021.15 1021.14 1021.10 1021.03 1020.93 1020.81 1020.65 1020.48 1020.29 1020.09 1019.90 1019.72 1019.56 1019.40 1019.25 1019.10 1018.93 1018.73 1018.51 1018.26 1018.00
1014.71 1015.38 1016.10 1016.83 1017.55 1018.22 1018.81 1019.31 1019.70 1020.00 1020.21 1020.38 1020.51 1020.63 1020.74 1020.86 1020.97 1021.07 1021.15 1021.22 1021.26 1021.27 1021.25 1021.22 1021.16 1021.08 1020.98 1020.86 1020.72 1020.55 1020.37 1020.17 1019.96 1019.76 1019.55 1019.35 1019.15 1018.94 1018.72 1018.49 1018.25 1017.99 1017.73
1014.35 1015.04 1015.80 1016.58 1017.34 1018.06 1018.69 1019.21 1019.62 1019.93 1020.16 1020.34 1020.50 1020.64 1020.78 1020.93 1021.08 1021.21 1021.31 1021.38 1021.41 1021.41 1021.38 1021.32 1021.24 1021.15 1021.05 1020.93 1020.79 1020.63 1020.44 1020.23 1020.01 1019.77 1019.52 1019.26 1019.01 1018.74 1018.48 1018.21 1017.94 1017.66 1017.40
1013.99 1014.70 1015.46 1016.26 1017.05 1017.79 1018.44 1018.99 1019.43 1019.77 1020.03 1020.25 1020.44 1020.63 1020.82 1021.01 1021.20 1021.36 1021.49 1021.57 1021.60 1021.59 1021.54 1021.46 1021.37 1021.26 1021.14 1021.01 1020.86 1020.69 1020.49 1020.27 1020.01 1019.74 1019.44 1019.14 1018.83 1018.51 1018.20 1017.90 1017.60 1017.31 1017.04
1013.66 1014.35 1015.11 1015.91 1016.70 1017.44 1018.11 1018.69 1019.16 1019.54 1019.85 1020.12 1020.37 1020.61 1020.86 1021.11 1021.34 1021.54 1021.69 1021.78 1021.82 1021.80 1021.74 1021.65 1021.53 1021.40 1021.26 1021.11 1020.93 1020.74 1020.51 1020.25 1019.97 1019.65 1019.32 1018.97 1018.61 1018.26 1017.91 1017.57 1017.26 1016.96 1016.69
1013.33 1014.01 1014.76 1015.53 1016.31 1017.06 1017.74 1018.34 1018.85 1019.28 1019.65 1019.98 1020.30 1020.61 1020.92 1021.22 1021.49 1021.72 1021.89 1022.00 1022.04 1022.03 1021.96 1021.85 1021.72 1021.56 1021.39 1021.20 1020.99 1020.76 1020.49 1020.19 1019.86 1019.51 1019.14 1018.75 1018.36 1017.98 1017.61 1017.25 1016.92 1016.62 1016.34
1013.01 1013.69 1014.42 1015.18 1015.94 1016.68 1017.37 1017.99 1018.54 1019.02 1019.46 1019.86 1020.25 1020.62 1020.98 1021.32 1021.63 1021.88 1022.08 1022.20 1022.25 1022.23 1022.16 1022.05 1021.90 1021.72 1021.52 1021.29 1021.03 1020.75 1020.43 1020.08 1019.71 1019.31 1018.91 1018.49 1018.09 1017.69 1017.30 1016.93 1016.59 1016.27 1015.98
1012.71 1013.39 1014.12 1014.86 1015.62 1016.35 1017.05 1017.69 1018.28 1018.81 1019.31 1019.77 1020.22 1020.64 1021.04 1021.41 1021.74 1022.01 1022.21 1022.33 1022.39 1022.38 1022.31 1022.20 1022.04 1021.84 1021.61 1021.34 1021.04 1020.70 1020.32 1019.92 1019.50 1019.07 1018.63 1018.20 1017.78 1017.37 1016.98 1016.60 1016.25 1015.91 1015.60
1012.42 1013.14 1013.87 1014.62 1015.37 1016.11 1016.81 1017.47 1018.09 1018.67 1019.21 1019.72 1020.20 1020.66 1021.08 1021.46 1021.79 1022.06 1022.26 1022.39 1022.45 1022.45 1022.39 1022.28 1022.12 1021.91 1021.65 1021.35 1020.99 1020.60 1020.17 1019.71 1019.24 1018.78 1018.31 1017.87 1017.44 1017.02 1016.63 1016.24 1015.87 1015.52 1015.17
1012.16 1012.93 1013.70 1014.47 1015.23 1015.97 1016.68 1017.36 1017.99 1018.59 1019.16 1019.69 1020.19 1020.66 1021.08 1021.46 1021.78 1022.03 1022.22 1022.34 1022.40 1022.41 1022.36 1022.26 1022.11 1021.89 1021.62 1021.28 1020.89 1020.44 1019.96 1019.45 1018.94 1018.43 1017.95 1017.48 1017.04 1016.63 1016.22 1015.83 1015.44 1015.06 1014.68
1011.94 1012.78 1013.61 1014.42 1015.21 1015.96 1016.67 1017.35 1017.99 1018.59 1019.15 1019.68 1020.18 1020.63 1021.03 1021.39 1021.68 1021.90 1022.07 1022.19 1022.25 1022.26 1022.22 1022.13 1021.98 1021.77 1021.48 1021.13 1020.70 1020.21 1019.68 1019.12 1018.57 1018.03 1017.51 1017.03 1016.58 1016.16 1015.75 1015.34 1014.93 1014.52 1014.09
1011.82 1012.74 1013.64 1014.49 1015.31 1016.07 1016.78 1017.45 1018.07 1018.64 1019.18 1019.69 1020.15 1020.57 1020.94 1021.25 1021.50 1021.69 1021.83 1021.93 1021.98 1021.99 1021.96 1021.88 1021.74 1021.53 1021.24 1020.86 1020.40 1019.88 1019.31 1018.72 1018.12 1017.54 1017.00 1016.50 1016.04 1015.60 1015.17 1014.75 1014.32 1013.87 1013.42
1011.84 1012.83 1013.79 1014.70 1015.54 1016.30 1017.00 1017.64 1018.22 1018.75 1019.25 1019.70 1020.12 1020.49 1020.80 1021.06 1021.27 1021.42 1021.53 1021.59 1021.63 1021.63 1021.60 1021.52 1021.38 1021.17 1020.87 1020.48 1020.00 1019.46 1018.85 1018.22 1017.59 1016.99 1016.41 1015.89 1015.40 1014.94 1014.50 1014.05 1013.60 1013.13 1012.65
1012.04 1013.10 1014.11 1015.05 1015.90 1016.66 1017.32 1017.92 1018.44 1018.92 1019.35 1019.74 1020.09 1020.40 1020.65 1020.86 1021.01 1021.11 1021.18 1021.21 1021.22 1021.20 1021.15 1021.06 1020.91 1020.70 1020.39 1019.99 1019.50 1018.93 1018.31 1017.65 1016.99 1016.35 1015.75 1015.19 1014.68 1014.19 1013.72 1013.26 1012.79 1012.30 1011.80
1012.46 1013.56 1014.60 1015.55 1016.39 1017.12 1017.74 1018.27 1018.73 1019.13 1019.48 1019.80 1020.08 1020.32 1020.51 1020.66 1020.75 1020.80 1020.82 1020.80 1020.77 1020.71 1020.63 1020.52 1020.36 1020.13 1019.81 1019.41 1018.91 1018.33 1017.70 1017.02 1016.34 1015.68 1015.05 1014.45 1013.90 1013.38 1012.88 1012.39 1011.89 1011.39 1010.88
1013.11 1014.22 1015.26 1016.19 1017.00 1017.67 1018.23 1018.69 1019.06 1019.38 1019.65 1019.89 1020.09 1020.26 1020.39 1020.48 1020.51 1020.50 1020.46 1020.39 1020.30 1020.20 1020.07 1019.92 1019.73 1019.48 1019.16 1018.75 1018.25 1017.68 1017.04 1016.37 1015.68 1014.99 1014.33 1013.71 1013.12 1012.56 1012.02 1011.49 1010.96 1010.43 1009.91
1013.98 1015.05 1016.05 1016.93 1017.68 1018.28 1018.76 1019.13 1019.42 1019.64 1019.83 1019.99 1020.13 1020.23 1020.30 1020.32 1020.30 1020.23 1020.12 1019.98 1019.83 1019.66 1019.48 1019.29 1019.07 1018.79 1018.46 1018.05 1017.57 1017.01 1016.38 1015.72 1015.03 1014.33 1013.65 1013.00 1012.37 1011.76 1011.17 1010.60 1010.03 1009.47 1008.92
1014.98 1015.99 1016.91 1017.72 1018.37 1018.89 1019.27 1019.55 1019.75 1019.89 1020.01 1020.10 1020.17 1020.21 1020.22 1020.18 1020.10 1019.96 1019.78 1019.58 1019.35 1019.12 1018.88 1018.64 1018.38 1018.08 1017.74 1017.34 1016.88 1016.34 1015.75 1015.10 1014.42 1013.73 1013.04 1012.35 1011.68 1011.03 1010.39 1009.76 1009.14 1008.53 1007.94
1016.04 1016.95 1017.78 1018.47 1019.02 1019.43 1019.72 1019.90 1020.02 1020.09 1020.14 1020.17 1020.18 1020.17 1020.13 1020.04 1019.89 1019.70 1019.45 1019.18 1018.88 1018.58 1018.29 1017.99 1017.70 1017.38 1017.04 1016.65 1016.21 1015.71 1015.15 1014.53 1013.88 1013.19 1012.50 1011.79 1011.08 1010.38 1009.68 1008.99 1008.30 1007.64 1006.99
1017.05 1017.85 1018.55 1019.12 1019.55 1019.86 1020.04 1020.14 1020.18 1020.19 1020.18 1020.17 1020.14 1020.09 1020.00 1019.87 1019.67 1019.42 1019.11 1018.78 1018.42 1018.06 1017.71 1017.38 1017.05 1016.72 1016.38 1016.01 1015.59 1015.12 1014.59 1014.01 1013.38 1012.71 1012.01 1011.29 1010.55 1009.80 1009.05 1008.29 1007.54 1006.80 1006.09
1017.94 1018.61 1019.17 1019.61 1019.93 1020.12 1020.22 1020.24 1020.22 1020.18 1020.13 1020.09 1020.03 1019.95 1019.83 1019.66 1019.42 1019.12 1018.77 1018.39 1017.98 1017.58 1017.19 1016.82 1016.47 1016.13 1015.78 1015.42 1015.02 1014.57 1014.07 1013.52 1012.90 1012.24 1011.54 1010.80 1010.04 1009.25 1008.45 1007.63 1006.81 1006.01 1005.23
Thickness
5679 5676 5673 5671 5669 5667 5664 5662 5660 5658 5656 5654 5653 5651 5648 5645 5642 5640 5638 5637 5636 5634 5632 5630 5628 5627 5627 5627 5627 5626 5626 5626 5627 5627 5626 5626 5625 5625 5626 5627 5628 5629 5630
5677 5673 5670 5667 5664 5662 5659 5656 5653 5651 5649 5647 5645 5643 5640 5636 5633 5631 5629 5627 5626 5624 5621 5620 5619 5618 5618 5618 5618 5618 5617 5617 5617 5617 5617 5617 5617 5616 5617 5618 5619 5620 5621
5674 5670 5666 5663 5659 5656 5653 5649 5646 5644 5641 5639 5636 5634 5631 5628 5625 5622 5620 5618 5617 5615 5612 5611 5610 5609 5609 5609 5609 5609 5609 5608 5608 5608 5607 5607 5607 5607 5607 5608 5609 5610 5611
5670 5666 5662 5658 5654 5650 5647 5643 5639 5635 5632 5629 5627 5625 5622 5620 5617 5613 5611 5609 5608 5606 5604 5602 5601 5600 5599 5599 5599 5599 5599 5598 5598 5597 5596 5596 5596 5596 5596 5597 5598 5599 5601
5665 5661 5657 5652 5648 5644 5640 5636 5631 5628 5623 5621 5619 5616 5614 5611 5608 5605 5602 5600 5599 5597 5594 5592 5591 5590 5589 5588 5588 5588 5588 5588 5587 5586 5585 5584 5584 5584 5585 5585 5586 5588 5590
5660 5655 5650 5645 5641 5637 5632 5628 5624 5619 5615 5613 5611 5608 5605 5602 5599 5597 5594 5592 5590 5587 5585 5582 5581 5579 5578 5577 5576 5576 5576 5576 5575 5574 5573 5573 5572 5572 5572 5573 5574 5575 5577
5655 5650 5645 5639 5635 5630 5626 5622 5616 5612 5607 5605 5601 5597 5595 5593 5590 5587 5585 5583 5581 5578 5575 5572 5570 5568 5566 5565 5564 5563 5563 5563 5562 5562 5561 5561 5560 5560 5560 5561 5562 5563 5564
5651 5646 5641 5634 5629 5624 5618 5614 5611 5604 5600 5596 5593 5588 5585 5582 5581 5579 5576 5573 5571 5568 5564 5561 5558 5556 5554 5553 5552 5551 5551 5550 5549 5549 5549 5548 5548 5548 5548 5548 5549 5550 5551
5647 5642 5637 5631 5624 5619 5613 5608 5604 5600 5592 5587 5585 5582 5577 5575 5569 5567 5564 5562 5560 5556 5552 5550 5547 5545 5543 5542 5540 5539 5538 5537 5536 5536 5536 5536 5536 5535 5535 5535 5536 5536 5537
5642 5637 5633 5627 5620 5614 5608 5603 5599 5594 5588 5581 5576 5573 5569 5565 5560 5557 5554 5551 5548 5545 5541 5539 5536 5533 5531 5530 5528 5526 5525 5523 5523 5522 5522 5521 5521 5520 5520 5520 5521 5521 5520
5634 5631 5627 5622 5615 5609 5602 5597 5592 5587 5582 5576 5570 5565 5559 5554 5550 5545 5541 5537 5536 5534 5530 5526 5523 5519 5517 5515 5513 5511 5510 5509 5508 5507 5506 5505 5504 5504 5503 5504 5504 5503 5502
5624 5622 5619 5616 5610 5603 5597 5591 5585 5580 5575 5570 5564 5559 5553 5547 5541 5535 5529 5523 5520 5519 5517 5513 5508 5505 5502 5499 5496 5494 5494 5492 5491 5490 5489 5488 5487 5486 5485 5485 5483 5482 5481
5617 5615 5611 5608 5602 5596 5589 5583 5577 5571 5566 5561 5555 5550 5545 5540 5534 5527 5520 5513 5509 5507 5505 5501 5496 5492 5487 5484 5481 5479 5477 5475 5473 5473 5473 5472 5471 5470 5468 5466 5465 5464 5464
5615 5609 5604 5598 5593 5587 5581 5575 5569 5562 5557 5552 5547 5541 5535 5530 5524 5518 5510 5502 5495 5492 5490 5488 5484 5479 5474 5470 5466 5464 5461 5458 5456 5455 5455 5454 5452 5450 5448 5447 5446 5446 5445
5605 5599 5594 5587 5582 5577 5572 5566 5560 5554 5547 5541 5536 5531 5525 5519 5513 5506 5499 5492 5483 5477 5475 5474 5469 5466 5461 5456 5451 5448 5445 5441 5440 5439 5437 5435 5433 5431 5429 5428 5426 5425 5423
5596 5589 5583 5577 5572 5567 5562 5556 5550 5544 5537 5531 5526 5520 5514 5508 5501 5494 5487 5480 5472 5465 5460 5458 5454 5450 5445 5441 5436 5433 5429 5427 5424 5421 5419 5417 5414 5411 5408 5406 5403 5399 5396
5586 5581 5575 5568 5563 5557 5552 5547 5540 5533 5527 5521 5516 5510 5504 5497 5490 5483 5475 5468 5460 5453 5448 5446 5440 5435 5429 5424 5421 5417 5413 5410 5406 5402 5399 5395 5392 5388 5384 5379 5375 5372 5368
5577 5572 5566 5559 5553 5548 5543 5537 5530 5523 5517 5511 5505 5499 5492 5486 5478 5471 5464 5456 5449 5442 5435 5432 5427 5420 5414 5409 5405 5400 5397 5392 5387 5381 5376 5372 5368 5362 5357 5352 5348 5345 5343
5566 5560 5555 5548 5543 5537 5531 5525 5519 5511 5505 5499 5493 5487 5480 5473 5466 5459 5452 5444 5437 5431 5423 5417 5413 5407 5400 5393 5388 5383 5378 5371 5363 5356 5351 5346 5341 5336 5331 5327 5325 5323 5322
5554 5549 5543 5536 5529 5523 5517 5511 5505 5498 5492 5486 5480 5474 5468 5461 5455 5447 5440 5432 5424 5417 5409 5403 5398 5392 5384 5378 5370 5364 5361 5351 5342 5332 5326 5323 5318 5314 5310 5307 5307 5307 5307
5540 5535 5528 5521 5515 5509 5504 5498 5492 5486 5479 5474 5467 5461 5455 5450 5444 5436 5429 5420 5412 5404 5396 5389 5383 5377 5370 5360 5351 5343 5339 5334 5325 5313 5310 5306 5300 5299 5295 5293 5293 5293 5296
5524 5519 5513 5507 5501 5497 5491 5486 5479 5472 5467 5461 5454 5448 5442 5436 5430 5424 5417 5410 5402 5392 5383 5375 5367 5358 5350 5340 5331 5323 5316 5313 5313 5302 5295 5296 5288 5289 5287 5284 5283 5284 5286
5509 5504 5498 5492 5487 5482 5478 5473 5467 5459 5453 5447 5441 5434 5428 5422 5415 5408 5402 5396 5387 5376 5368 5359 5350 5339 5331 5322 5314 5307 5300 5296 5295 5287 5281 5289 5283 5282 5280 5277 5275 5275 5277
5495 5490 5484 5479 5474 5470 5466 5461 5454 5447 5441 5434 5428 5421 5414 5408 5402 5397 5391 5383 5371 5359 5350 5340 5331 5323 5314 5306 5299 5295 5290 5288 5286 5277 5267 5273 5277 5275 5275 5270 5266 5266 5268
5481 5476 5471 5467 5462 5458 5454 5449 5442 5435 5428 5422 5415 5409 5403 5396 5390 5385 5378 5367 5356 5344 5333 5324 5316 5309 5302 5295 5289 5284 5277 5272 5275 5273 5258 5258 5264 5264 5267 5265 5261 5258 5260
5470 5466 5460 5455 5450 5445 5443 5438 5432 5424 5417 5410 5403 5396 5389 5383 5376 5369 5360 5351 5341 5331 5321 5312 5303 5296 5290 5284 5278 5271 5263 5258 5257 5259 5253 5246 5248 5243 5256 5263 5257 5252 5251